Location: São Paulo
(23.5507°S, 46.6334°W)
Time: 01:13:15
(UTC-03:00)

A-11 Canister half - Pass Details

Date: 08 February 2026
Orbit: 1525 x 1683 km, 47.3° (Epoch: 11 March)

Event Time Altitude Azimuth Distance (km) Brightness Sun altitude
Exits shadow 04:34:57 - 339° (NNW) 4,133 10.8 -16.9°
Reaches altitude 10° 04:35:51 10° 341° (NNW) 3,872 10.7 -16.7°
Maximum altitude 04:45:15 48° 51° (NE) 2,090 9.9 -14.8°
Drops below altitude 10° 04:54:50 10° 121° (ESE) 3,958 12.6 -12.8°
Sets 04:58:10 0° 126° (SE) 4,949 13.4 -12.1°
